Weather in Pokolbin

Australia     32°48′21″S   151°16′45″E
temp.,
°C
wind,
m/s
gust,
m/s
humid.,
%
clouds,
%
prec.,
mm/h
press.,
hPa
HPBL,
m
14 may, fri
fri1401:00+10wnw24830 0.0 101285
04:00+9wnw27860 0.0 1012147
07:00+8wnw25900 0.0 1013114
10:00+16w59530 0.0 10141229
13:00+18w47340 0.0 10121565
16:00+16w38400 0.0 1012601
19:00+12w311550 0.0 1015334
22:00+10w310645 0.0 1017430
15 may, sat
sat1501:00+7nw237846 0.0 101671
04:00+6nw25844 0.0 1016117
07:00+5wnw258699 0.0 1017123
10:00+13wnw411485 0.0 10161676
13:00+17w5113690 0.0 10132575
16:00+13w410450 0.0 10141686
19:00+8wsw28610 0.0 1018165
22:00+5wsw22700 0.0 102158
16 may, sun
sun1601:00+4w21760 0.0 102227
04:00+3w21780 0.0 102231
07:00+3wnw22770 0.0 102443
10:00+11nw23440 0.0 1023595
13:00+15nw23340 0.0 10211201
16:00+13nnw26450 0.0 1020399
19:00+7wnw24620 0.0 102271
22:00+6wnw23700 0.0 102364
17 may, mon
mon1701:00+4wnw23780 0.0 102351
04:00+3wnw25830 0.0 102391
07:00+3wnw24850 0.0 1025100
10:00+12wnw24520 0.0 1025563
13:00+18sse25372 0.0 10231728
16:00+16se125628 0.0 102480
19:00+9s11870 0.0 102710
22:00+8sw11955 0.0 102913
18 may, tue
tue1801:00+7sw11963 0.0 102916
04:00+6wsw119742 0.0 102915
07:00+9w128891 0.0 103057
10:00+15nw11577 0.0 1030408
13:00+18nne21450 0.0 10281402
16:00+16ne11600 0.0 102726
19:00+10e11830 0.0 102810
22:00+8wsw10950 0.0 102910